Snowfall_Accumulation
0.0 0.0 0.0 0.0 0.0 0.0 0.0 0.0 0.0 0.0 0.0 0.0 0.0 0.0 0.0 0.0 0.0 0.0 0.0 0.0 0.0 0.0 0.0 0.0 0.0 0.0 0.0 0.1 0.0 0.0 0.0 0.0 0.4 0.3 0.1 0.1 0.1 0.1 0.1 0.1 0.1 0.1 0.1
0.0 0.0 0.0 0.0 0.0 0.0 0.0 0.0 0.0 0.0 0.0 0.0 0.0 0.0 0.0 0.0 0.0 0.0 0.0 0.0 0.0 0.0 0.0 0.0 0.0 0.0 0.1 0.0 0.1 0.0 0.0 0.1 0.2 0.6 0.4 0.6 0.5 0.3 0.3 0.3 0.2 0.2 0.2
0.0 0.0 0.0 0.0 0.0 0.0 0.0 0.0 0.0 0.0 0.0 0.0 0.0 0.0 0.0 0.0 0.0 0.0 0.0 0.0 0.0 0.0 0.0 0.0 0.0 0.1 0.2 0.3 0.1 0.1 0.2 0.2 0.2 1.0 0.9 0.6 0.7 0.6 0.5 0.2 0.3 0.4 0.3
0.0 0.0 0.0 0.0 0.0 0.0 0.0 0.0 0.0 0.0 0.0 0.0 0.0 0.0 0.0 0.0 0.0 0.0 0.0 0.0 0.0 0.1 0.1 0.1 0.1 0.0 0.1 0.2 0.2 0.3 0.5 1.1 1.0 1.2 1.1 0.9 0.8 0.7 0.4 0.4 0.5 0.4 0.3
0.0 0.0 0.0 0.0 0.0 0.0 0.1 0.1 0.1 0.1 0.0 0.0 0.0 0.1 0.0 0.0 0.0 0.0 0.0 0.1 0.1 0.1 0.1 0.1 0.1 0.0 nan nan 0.5 0.6 0.6 1.4 2.4 2.7 1.4 1.0 0.8 0.8 0.6 0.4 0.6 0.5 0.3
0.0 0.0 0.0 0.1 0.2 0.2 0.3 0.2 0.2 0.2 0.2 0.2 0.2 0.2 0.2 0.0 nan nan 0.1 0.1 0.2 0.1 0.1 0.2 0.2 0.3 0.3 nan nan nan nan 1.8 9.1 7.7 1.4 1.5 0.8 0.8 0.7 0.7 0.7 0.7 1.3
0.2 0.5 0.4 0.4 0.5 0.3 0.3 0.4 0.3 0.3 0.3 0.3 0.3 0.3 0.4 0.3 nan nan nan 0.3 0.3 0.1 0.2 0.3 0.4 0.6 0.5 0.3 nan nan nan nan nan 0.5 1.8 0.9 0.8 0.4 0.4 0.7 0.5 0.8 0.8
0.4 1.0 0.8 0.5 1.2 0.6 0.5 0.6 0.4 0.4 0.6 0.6 0.7 0.7 0.6 0.4 nan nan nan 0.3 0.5 0.3 0.3 0.4 0.4 0.8 0.8 0.7 0.8 1.9 1.4 1.0 0.6 0.6 0.6 1.1 0.8 0.5 0.7 1.1 1.8 2.0 1.8
0.2 0.4 0.5 0.8 1.6 0.8 2.4 0.9 0.7 1.5 1.3 2.4 2.3 3.9 3.0 2.7 nan nan 0.7 1.4 1.2 1.1 0.6 0.6 0.4 0.7 nan nan 3.0 5.6 3.7 2.6 nan nan nan nan nan nan nan 6.0 16.0 17.8 9.1
0.2 0.2 0.3 0.8 2.8 2.2 1.0 1.8 2.1 2.4 2.4 3.6 3.5 3.4 1.3 5.1 nan nan nan 4.1 6.0 3.4 1.8 0.7 0.6 0.7 nan nan 3.5 5.7 7.9 4.1 3.7 5.8 3.1 1.9 nan nan nan 0.8 5.4 16.9 9.0
0.8 0.8 1.1 1.1 3.4 1.7 2.3 1.9 3.2 4.5 2.9 4.9 4.8 4.2 4.6 2.8 2.7 nan nan 3.1 4.9 7.0 6.4 4.6 2.8 nan nan nan nan 6.1 6.0 4.9 10.2 8.6 6.8 6.0 3.7 2.5 2.4 1.6 1.0 2.9 7.2
1.6 2.0 2.5 4.1 3.3 3.3 7.6 5.0 6.7 6.8 6.8 6.5 6.8 6.2 5.4 2.9 nan nan nan nan nan 10.7 6.6 3.7 3.6 nan nan nan 3.2 nan nan 3.8 12.5 13.9 11.5 8.3 5.1 4.1 2.3 2.0 0.8 1.2 1.0
5.0 7.1 7.0 5.8 5.7 5.7 8.9 6.5 8.3 7.9 9.2 5.9 7.2 6.9 5.6 5.3 5.1 nan nan nan nan 6.4 4.7 4.0 nan nan nan nan nan nan 2.3 9.3 11.5 13.6 8.8 4.8 2.6 2.3 1.7 2.6 1.3 1.5 1.0
9.4 5.2 4.1 5.3 3.6 4.8 5.7 6.9 10.2 8.9 8.4 9.5 11.0 10.2 6.9 6.7 5.1 5.1 8.4 5.5 3.2 6.8 nan 6.0 nan 4.6 nan nan 4.3 4.4 6.2 6.0 6.6 7.4 5.7 3.1 3.1 4.3 5.0 3.7 5.8 4.9 8.6
6.8 3.9 5.1 6.7 6.6 4.2 3.9 6.2 5.7 3.6 8.3 16.0 18.7 13.8 15.5 14.3 10.6 5.6 12.1 13.0 11.9 11.5 8.8 15.5 13.9 9.2 8.1 6.9 8.0 7.4 6.8 7.5 7.9 7.1 7.6 7.2 6.9 6.2 6.1 5.1 5.5 7.7 9.8
4.1 5.7 5.3 4.9 4.3 4.0 4.4 4.6 nan nan nan nan nan 9.4 12.5 nan nan nan nan nan nan nan 21.5 24.0 12.9 10.0 7.4 6.9 8.4 8.1 7.3 6.1 6.8 8.3 9.3 8.2 8.1 7.6 7.7 8.2 8.0 9.2 10.0
6.2 4.7 5.9 4.9 5.4 6.0 6.2 7.2 8.3 5.2 nan nan nan nan nan nan nan nan nan nan nan nan 31.1 17.5 13.9 9.8 9.4 7.4 8.8 8.1 8.4 6.9 5.3 9.1 8.3 8.5 10.0 10.7 11.0 10.1 9.2 8.0 12.3
7.1 2.2 7.4 7.9 7.4 7.9 8.4 8.5 8.8 10.6 11.9 9.6 nan nan nan nan nan nan nan nan 27.1 nan 24.2 24.1 20.7 16.5 12.7 11.6 9.7 9.6 9.9 9.9 9.3 10.3 10.5 14.1 15.9 16.6 15.2 15.0 11.6 14.5 14.5
8.1 7.2 7.7 7.8 7.4 7.7 8.7 8.0 9.0 9.0 9.1 11.4 11.0 10.6 5.6 nan nan nan nan 18.3 24.9 22.8 22.5 23.2 19.6 18.8 15.5 16.2 15.4 17.3 15.1 15.7 15.1 19.7 19.8 21.1 18.8 19.4 19.6 13.7 10.6 6.4 7.6
8.8 3.7 7.2 11.8 9.9 8.8 6.7 8.7 8.0 8.2 9.0 10.3 10.5 9.1 15.6 15.2 22.0 23.1 19.2 25.7 25.6 23.4 20.4 22.8 23.8 25.9 26.3 24.4 23.7 22.2 22.4 22.9 20.8 21.8 21.9 20.7 19.2 19.9 14.1 18.3 15.4 13.2 14.3
15.6 13.2 2.8 11.3 13.5 13.6 13.5 10.9 8.6 11.5 10.5 12.4 9.6 9.0 nan 15.8 17.1 18.7 21.9 20.4 23.7 25.8 21.3 23.4 24.8 31.2 32.1 34.5 29.2 28.1 26.7 17.6 21.7 23.8 25.2 25.0 23.7 28.4 17.4 11.3 15.9 16.7 16.0
16.9 17.4 17.0 17.7 12.4 12.6 14.3 9.9 10.9 11.0 10.2 8.9 6.9 7.6 nan 9.7 12.4 13.2 15.4 20.4 25.0 24.9 28.3 33.0 32.4 35.1 31.4 29.3 27.0 25.1 21.4 25.1 26.9 25.5 21.2 22.4 25.7 22.1 20.9 14.3 14.8 12.8 16.5
15.4 13.0 13.0 12.5 11.9 6.1 13.2 15.4 13.6 13.0 11.7 12.8 11.0 11.0 13.1 16.7 14.4 13.7 20.9 23.9 19.5 18.7 21.2 22.5 21.0 21.0 19.6 23.1 20.5 19.9 21.5 24.5 25.5 32.0 23.5 24.2 23.5 26.2 22.8 19.9 17.1 18.6 17.1
13.5 13.1 12.3 16.1 14.0 11.5 13.8 14.8 12.8 5.9 13.1 14.2 23.2 18.0 10.1 13.9 21.1 15.8 17.1 20.4 16.7 28.1 20.2 21.7 18.0 17.6 19.4 28.9 35.8 35.3 37.7 39.3 38.2 35.3 31.9 23.0 23.1 18.8 19.4 21.2 16.5 14.8 13.0
15.7 13.2 13.3 12.3 18.7 14.6 13.5 16.2 10.9 15.6 18.9 14.5 18.0 13.0 14.0 13.3 14.8 21.6 20.1 16.3 18.4 16.7 14.3 14.2 15.0 15.8 16.1 17.0 23.7 29.9 29.5 4.3 19.8 4.7 28.3 20.5 24.9 25.8 24.5 20.1 18.4 15.5 12.8
12.6 13.1 13.4 13.7 13.2 14.4 15.1 14.9 15.6 12.2 15.9 17.3 16.3 16.5 14.2 14.2 14.4 17.3 16.2 16.3 13.1 13.6 14.0 15.4 15.4 13.4 12.4 14.4 15.6 6.7 4.0 3.5 23.8 4.0 23.1 19.4 22.9 22.2 21.8 21.9 20.2 18.2 14.5
Water_Equivalent
0.00 0.00 0.00 0.00 0.00 0.00 0.00 0.00 0.00 0.00 0.00 0.00 0.00 0.00 0.00 0.00 0.00 0.00 0.00 0.00 0.00 0.00 0.00 0.00 0.00 0.00 0.00 0.02 0.01 0.01 0.02 0.02 0.10 0.05 0.02 0.03 0.03 0.03 0.02 0.01 0.01 0.01 0.02
0.00 0.00 0.00 0.00 0.00 0.00 0.00 0.00 0.00 0.00 0.00 0.00 0.00 0.00 0.00 0.00 0.00 0.00 0.00 0.01 0.01 0.00 0.00 0.00 0.01 0.00 0.03 0.01 0.02 0.01 0.02 0.03 0.06 0.11 0.07 0.09 0.08 0.06 0.07 0.05 0.03 0.03 0.04
0.00 0.00 0.00 0.00 0.00 0.00 0.00 0.00 0.00 0.00 0.00 0.00 0.00 0.00 0.00 0.00 0.00 0.00 0.00 0.00 0.00 0.00 0.01 0.01 0.01 0.03 0.04 0.07 0.03 0.03 0.06 0.04 0.04 0.18 0.14 0.10 0.12 0.10 0.07 0.03 0.05 0.07 0.06
0.00 0.00 0.00 0.00 0.00 0.00 0.00 0.00 0.00 0.00 0.00 0.00 0.00 0.00 0.00 0.00 0.00 0.00 0.00 0.01 0.01 0.01 0.02 0.02 0.01 0.01 0.03 0.04 0.05 0.07 0.09 0.20 0.18 0.21 0.17 0.15 0.13 0.09 0.06 0.06 0.07 0.05 0.05
0.00 0.00 0.00 0.00 0.00 0.01 0.02 0.03 0.03 0.03 0.00 0.00 0.00 0.01 0.00 0.01 0.00 0.01 0.01 0.03 0.03 0.02 0.03 0.03 0.02 0.01 nan nan 0.12 0.12 0.12 0.26 0.41 0.43 0.19 0.14 0.10 0.09 0.08 0.06 0.10 0.07 0.05
0.00 0.00 0.00 0.03 0.05 0.05 0.06 0.05 0.04 0.03 0.03 0.03 0.04 0.04 0.03 0.00 nan nan 0.02 0.03 0.04 0.03 0.03 0.04 0.05 0.09 0.06 nan nan nan nan 0.28 1.01 0.97 0.20 0.18 0.11 0.11 0.10 0.09 0.10 0.11 0.17
0.05 0.09 0.08 0.07 0.08 0.06 0.06 0.05 0.05 0.04 0.04 0.04 0.05 0.05 0.06 0.05 nan nan nan 0.07 0.06 0.03 0.04 0.07 0.09 0.10 0.13 0.07 nan nan nan nan nan 0.09 0.22 0.13 0.10 0.05 0.05 0.09 0.07 0.14 0.14
0.07 0.15 0.12 0.07 0.16 0.08 0.07 0.08 0.06 0.05 0.08 0.07 0.09 0.10 0.09 0.07 nan nan nan 0.06 0.09 0.07 0.06 0.08 0.08 0.12 0.13 0.11 0.14 0.30 0.25 0.18 0.11 0.10 0.09 0.16 0.13 0.08 0.10 0.14 0.22 0.29 0.28
0.04 0.06 0.07 0.11 0.21 0.10 0.29 0.11 0.09 0.17 0.14 0.25 0.26 0.43 0.36 0.33 nan nan 0.13 0.23 0.18 0.17 0.10 0.11 0.08 0.11 nan nan 0.40 0.62 0.43 0.35 nan nan nan nan nan nan nan 0.93 2.16 2.37 1.20
0.04 0.03 0.05 0.11 0.34 0.27 0.12 0.22 0.26 0.28 0.25 0.40 0.38 0.39 0.25 0.60 nan nan nan 0.71 0.74 0.43 0.24 0.11 0.18 0.12 nan nan 0.46 0.64 0.85 0.48 0.47 0.72 0.44 0.29 nan nan nan 0.12 0.77 2.12 1.18
0.11 0.11 0.13 0.14 0.41 0.22 0.28 0.24 0.39 0.48 0.30 0.52 0.52 0.48 0.54 0.41 0.37 nan nan 0.46 0.67 0.87 0.80 0.57 0.39 nan nan nan nan 0.72 0.69 0.61 1.21 1.02 0.81 0.73 0.50 0.34 0.37 0.24 0.14 0.44 0.96
0.19 0.22 0.28 0.48 0.40 0.41 0.87 0.56 0.78 0.73 0.73 0.68 0.73 0.66 0.60 0.34 nan nan nan nan nan 1.45 0.83 0.49 0.48 nan nan nan 0.64 nan nan 0.80 1.65 1.64 1.36 0.97 0.62 0.50 0.30 0.27 0.11 0.16 0.16
0.51 0.74 0.74 0.66 0.67 0.68 1.03 0.68 0.95 0.85 1.00 0.62 0.77 0.74 0.61 0.61 0.64 nan nan nan nan 0.91 0.67 0.51 nan nan nan nan nan nan 0.75 1.21 1.33 1.53 0.97 0.55 0.31 0.28 0.20 0.31 0.15 0.18 0.12
1.01 0.52 0.40 0.53 0.43 0.53 0.73 0.87 1.27 1.03 0.88 1.01 1.19 1.11 0.74 0.71 0.56 0.61 1.10 0.89 0.66 0.98 nan 0.84 nan 0.61 nan nan 0.67 0.66 0.80 0.72 0.75 0.81 0.66 0.37 0.37 0.51 0.58 0.45 0.68 0.58 1.09
0.68 0.36 0.51 0.73 0.80 0.47 0.42 0.74 0.64 0.43 0.94 1.67 2.04 1.48 1.58 1.49 1.13 0.61 1.44 1.68 1.60 1.53 1.33 1.82 1.52 1.03 0.89 0.78 0.90 0.85 0.77 0.85 0.88 0.81 0.84 0.80 0.79 0.72 0.72 0.60 0.65 0.91 1.16
0.37 0.56 0.55 0.55 0.49 0.43 0.44 0.46 nan nan nan nan nan 1.22 1.63 nan nan nan nan nan nan nan 2.78 2.72 1.32 1.02 0.73 0.69 0.84 0.80 0.73 0.68 0.70 0.88 1.00 0.90 0.88 0.85 0.86 0.94 0.96 1.10 1.13
0.68 0.46 0.62 0.53 0.52 0.59 0.61 0.71 0.83 0.54 nan nan nan nan nan nan nan nan nan nan nan nan 3.81 1.90 1.45 0.97 0.90 0.67 0.83 0.74 0.75 0.66 0.48 0.88 0.81 0.86 1.06 1.17 1.25 1.15 1.06 0.89 1.41
0.73 0.71 0.80 0.78 0.74 0.79 0.84 0.88 0.91 1.07 1.21 0.98 nan nan nan nan nan nan nan nan 3.30 nan 2.80 2.72 2.24 1.73 1.23 1.08 0.88 0.84 0.86 0.88 0.82 0.96 0.99 1.46 1.72 1.81 1.68 1.72 1.32 1.70 1.70
0.81 0.72 0.78 0.78 0.75 0.78 0.88 0.79 0.91 0.87 0.88 1.13 1.11 1.09 0.94 nan nan nan nan 2.06 2.88 2.54 2.51 2.57 2.07 1.90 1.49 1.60 1.50 1.72 1.44 1.49 1.43 1.98 2.02 2.24 2.05 2.15 2.22 1.55 1.16 0.93 1.04
0.85 0.90 0.92 1.18 0.95 0.84 0.63 0.82 0.74 0.76 0.83 1.00 1.04 0.91 1.64 1.81 2.47 2.61 2.13 3.00 2.94 2.62 2.22 2.47 2.55 2.80 2.85 2.63 2.54 2.33 2.32 2.39 2.12 2.23 2.23 2.16 2.06 2.24 1.46 2.12 1.78 1.45 1.70
1.49 1.21 0.93 1.01 1.28 1.30 1.30 1.00 0.76 1.09 0.98 1.21 0.92 0.89 nan 1.62 1.79 2.00 2.40 2.18 2.61 2.88 2.29 2.56 2.67 3.53 3.71 4.10 3.30 3.12 2.90 1.74 2.25 2.50 2.69 2.68 2.56 3.26 1.93 1.16 1.83 2.00 1.92
1.54 1.61 1.58 1.65 1.07 1.09 1.31 0.85 0.95 0.97 0.91 0.77 0.59 0.71 nan 0.91 1.21 1.31 1.52 2.14 2.72 2.67 3.09 3.71 3.62 4.02 3.51 3.24 2.88 2.68 2.19 2.68 2.96 2.72 2.12 2.27 2.74 2.36 2.35 1.55 1.65 1.41 1.99
1.30 1.04 1.09 1.05 1.00 1.37 1.16 1.43 1.22 1.17 1.03 1.20 1.03 1.00 1.21 1.68 1.41 1.32 2.20 2.51 1.92 1.80 2.11 2.27 2.11 2.10 1.96 2.37 2.07 2.00 2.16 2.51 2.64 3.61 2.32 2.45 2.35 2.80 2.51 2.20 1.91 2.14 2.03
1.09 1.09 1.03 1.48 1.25 0.97 1.23 1.34 1.11 1.45 1.18 1.32 2.34 1.81 0.94 1.33 2.12 1.45 1.60 1.99 1.58 3.01 2.02 2.21 1.73 1.70 1.96 3.20 4.22 4.14 4.51 4.77 4.48 4.05 3.56 2.25 2.24 1.98 1.91 2.30 1.79 1.73 1.40
1.35 1.10 1.13 1.03 1.77 1.31 1.19 1.52 0.96 1.48 1.84 1.36 1.80 1.21 1.26 1.16 1.35 2.17 1.99 1.56 1.81 1.65 1.39 1.38 1.47 1.55 1.60 1.71 2.53 3.36 3.60 1.42 2.58 1.55 3.05 1.99 2.48 2.55 2.41 2.03 1.89 1.55 1.34
1.06 1.12 1.16 1.21 1.16 1.32 1.42 1.39 1.47 1.10 1.52 1.66 1.53 1.56 1.30 1.30 1.34 1.71 1.57 1.59 1.23 1.30 1.37 1.54 1.54 1.32 1.23 1.44 1.56 1.63 1.32 1.16 2.71 1.32 2.39 1.87 2.21 2.02 1.97 2.01 1.84 1.75 1.39
SL_Ratio
nan nan nan nan nan nan nan nan nan nan nan nan nan nan nan nan nan nan nan nan 4.0 4.5 nan nan nan nan 3.3 4.1 3.4 2.9 2.5 2.7 4.2 5.5 4.1 4.1 4.0 4.1 4.3 4.2 5.3 5.4 5.4
nan nan nan nan nan nan nan nan nan nan nan nan nan nan nan nan nan nan 5.0 4.4 4.0 5.0 nan 5.0 4.7 5.0 4.3 3.7 3.5 3.3 2.9 2.8 3.8 5.5 5.5 6.1 6.0 4.9 5.2 6.0 6.0 5.5 5.7
nan nan nan nan nan nan nan nan nan nan nan nan nan nan nan nan nan nan nan nan nan 3.6 3.9 4.3 3.9 4.3 4.3 4.2 3.4 3.3 3.5 3.8 4.7 5.7 6.5 6.1 6.4 6.4 6.9 6.7 6.6 6.5 5.9
nan nan nan nan nan nan nan nan nan nan nan nan nan nan nan nan nan nan 4.2 3.8 3.5 3.9 3.9 3.8 3.9 3.6 4.3 4.5 4.0 4.0 4.9 5.6 5.6 5.9 6.3 6.4 6.6 7.2 6.5 6.8 7.3 7.4 6.7
nan nan nan nan nan 3.5 3.8 4.1 4.2 4.2 nan nan nan 4.7 nan 4.8 5.0 3.3 2.9 4.1 3.9 4.0 4.0 4.1 3.8 3.2 nan nan 4.2 4.6 5.2 5.6 5.9 6.5 7.0 7.1 7.7 8.1 7.3 7.4 6.5 6.8 6.7
0.0 5.0 5.0 4.3 4.5 4.6 4.6 4.7 4.8 5.2 5.3 5.8 6.0 5.8 5.7 nan nan nan 3.6 4.0 4.1 3.8 3.8 4.1 3.7 3.6 4.3 nan nan nan nan 6.3 9.1 8.0 7.1 8.2 7.1 7.3 7.0 7.4 7.0 6.6 7.5
4.8 5.1 5.2 5.4 6.4 5.4 5.5 6.6 7.0 6.9 6.4 7.0 6.7 6.3 6.9 5.4 nan nan nan 4.5 4.5 4.3 4.4 4.5 4.7 5.4 3.7 5.1 nan nan nan nan nan 5.7 7.9 7.1 7.5 7.1 7.3 7.9 7.5 5.6 5.6
5.6 6.7 7.2 7.0 7.6 7.6 7.6 7.6 7.2 7.1 7.8 8.1 7.7 7.1 7.1 5.8 nan nan nan 4.7 5.3 4.9 4.9 5.2 5.3 6.4 6.5 6.1 5.4 6.3 5.6 5.5 5.4 6.1 6.4 6.9 6.7 6.9 7.5 8.0 8.1 7.1 6.5
5.7 6.4 7.1 7.5 7.8 7.9 8.3 8.2 8.2 8.9 9.2 9.4 8.8 9.2 8.5 8.1 nan nan 4.9 6.3 7.0 6.8 5.8 5.9 5.9 6.3 nan nan 7.6 9.0 8.5 7.4 nan nan nan nan nan nan nan 6.5 7.4 7.5 7.6
6.6 6.5 7.1 7.7 8.0 8.3 8.1 8.4 8.1 8.4 9.6 9.0 9.2 8.8 5.3 8.5 nan nan nan 5.7 8.1 7.9 7.6 6.6 3.3 6.2 nan nan 7.5 8.9 9.3 8.5 7.8 8.0 7.0 6.5 nan nan nan 7.0 7.0 8.0 7.6
7.0 7.6 8.1 8.0 8.3 8.1 8.0 7.8 8.2 9.5 9.4 9.4 9.2 8.8 8.6 6.8 7.4 nan nan 6.8 7.3 8.0 8.0 8.0 7.3 nan nan nan nan 8.5 8.7 8.1 8.4 8.5 8.3 8.2 7.5 7.2 6.6 6.5 7.2 6.6 7.5
8.5 8.9 8.8 8.6 8.2 8.1 8.7 9.0 8.6 9.3 9.4 9.5 9.4 9.3 8.9 8.5 nan nan nan nan nan 7.3 8.0 7.7 7.5 nan nan nan 5.0 nan nan 4.7 7.6 8.5 8.5 8.5 8.3 8.2 7.6 7.4 8.0 7.1 6.6
9.7 9.6 9.5 8.8 8.6 8.4 8.7 9.5 8.7 9.3 9.2 9.4 9.3 9.3 9.1 8.6 8.0 nan nan nan nan 7.1 7.0 7.8 nan nan nan nan nan nan 3.0 7.7 8.6 8.9 9.1 8.6 8.4 8.0 8.5 8.4 8.5 8.1 8.2
9.4 9.9 10.3 10.0 8.3 9.0 7.9 8.0 8.0 8.7 9.5 9.4 9.2 9.2 9.3 9.5 9.1 8.4 7.6 6.2 4.8 6.9 nan 7.1 nan 7.5 nan nan 6.3 6.6 7.7 8.4 8.8 9.1 8.6 8.4 8.4 8.5 8.5 8.3 8.5 8.4 7.9
10.0 10.7 9.9 9.1 8.2 9.1 9.3 8.4 8.9 8.5 8.8 9.6 9.1 9.4 9.8 9.6 9.4 9.2 8.4 7.7 7.4 7.5 6.6 8.5 9.1 8.9 9.0 8.9 8.9 8.8 8.8 8.8 9.0 8.8 9.0 9.0 8.7 8.6 8.4 8.6 8.5 8.4 8.4
10.9 10.2 9.6 8.9 8.9 9.3 10.0 9.8 nan nan nan nan nan 7.7 7.6 nan nan nan nan nan nan nan 7.8 8.8 9.8 9.8 10.1 10.0 10.0 10.2 10.0 9.0 9.7 9.5 9.3 9.0 9.1 9.0 8.9 8.7 8.4 8.4 8.8
9.1 10.2 9.5 9.4 10.3 10.2 10.1 10.1 10.1 9.6 nan nan nan nan nan nan nan nan nan nan nan nan 8.2 9.2 9.6 10.2 10.4 11.0 10.7 10.9 11.1 10.5 11.0 10.4 10.3 9.8 9.5 9.1 8.8 8.8 8.7 9.0 8.7
9.7 3.0 9.2 10.0 10.0 10.1 10.0 9.6 9.7 9.9 9.8 9.8 nan nan nan nan nan nan nan nan 8.2 nan 8.6 8.9 9.2 9.5 10.3 10.7 11.0 11.4 11.5 11.4 11.3 10.8 10.6 9.6 9.2 9.1 9.0 8.7 8.8 8.5 8.5
10.0 10.0 9.9 10.0 10.0 9.8 9.9 10.1 10.0 10.3 10.3 10.0 9.9 9.7 5.9 nan nan nan nan 8.9 8.7 9.0 9.0 9.0 9.5 9.9 10.4 10.1 10.3 10.0 10.5 10.6 10.6 9.9 9.8 9.4 9.2 9.0 8.8 8.8 9.1 6.8 7.2
10.3 4.1 7.8 10.0 10.4 10.5 10.6 10.6 10.8 10.8 10.9 10.3 10.1 10.1 9.5 8.4 8.9 8.9 9.0 8.5 8.7 8.9 9.2 9.2 9.3 9.2 9.2 9.3 9.3 9.5 9.6 9.6 9.8 9.8 9.8 9.6 9.3 8.9 9.7 8.6 8.6 9.1 8.4
10.5 10.9 3.0 11.1 10.6 10.4 10.4 10.9 11.3 10.6 10.7 10.3 10.4 10.1 nan 9.8 9.6 9.3 9.1 9.4 9.1 8.9 9.3 9.1 9.3 8.8 8.7 8.4 8.8 9.0 9.2 10.2 9.6 9.5 9.4 9.3 9.2 8.7 9.0 9.7 8.7 8.3 8.3
11.0 10.8 10.8 10.7 11.6 11.5 10.9 11.7 11.4 11.2 11.3 11.5 11.7 10.7 nan 10.6 10.3 10.1 10.1 9.5 9.2 9.3 9.1 8.9 8.9 8.7 8.9 9.1 9.4 9.4 9.8 9.3 9.1 9.4 10.0 9.9 9.4 9.4 8.9 9.2 9.0 9.1 8.3
11.8 12.5 12.0 11.9 11.9 4.5 11.4 10.8 11.2 11.1 11.3 10.7 10.7 11.0 10.8 9.9 10.2 10.4 9.5 9.5 10.1 10.4 10.1 9.9 9.9 10.0 10.0 9.7 9.9 9.9 10.0 9.7 9.7 8.9 10.1 9.9 10.0 9.4 9.1 9.1 8.9 8.7 8.4
12.5 12.0 11.9 10.9 11.2 11.9 11.2 11.0 11.5 4.1 11.0 10.8 9.9 9.9 10.8 10.5 10.0 10.9 10.7 10.3 10.5 9.3 10.0 9.9 10.4 10.4 9.9 9.0 8.5 8.5 8.3 8.2 8.5 8.7 9.0 10.2 10.3 9.5 10.2 9.2 9.2 8.6 9.3
11.6 12.0 11.8 11.9 10.6 11.1 11.3 10.7 11.4 10.6 10.3 10.6 10.0 10.8 11.2 11.5 11.0 10.0 10.1 10.4 10.1 10.1 10.3 10.3 10.2 10.2 10.1 9.9 9.4 8.9 8.2 3.0 7.7 3.0 9.3 10.3 10.1 10.1 10.2 9.9 9.7 10.0 9.6
11.9 11.7 11.6 11.4 11.4 10.9 10.6 10.7 10.6 11.0 10.5 10.4 10.7 10.6 10.9 10.9 10.7 10.1 10.3 10.3 10.6 10.4 10.2 10.0 10.0 10.1 10.1 10.0 10.0 4.1 3.0 3.0 8.8 3.0 9.7 10.4 10.3 11.0 11.0 10.9 11.0 10.4 10.4